Weather History for KRMN - January, 2012

Change the Weather History Date:

Thursday, January 5, 2012

  Actual Average (KNYG) Record (KNYG)
Temperature  
Mean Temperature 40 °F -  
Max Temperature 51 °F 43 °F 68 °F (1997)
Min Temperature 28 °F 28 °F 14 °F (1999)
Degree Days  
Heating Degree Days 26    
Moisture  
Dew Point 28 °F    
Average Humidity 74    
Maximum Humidity 100    
Minimum Humidity 43    
Precipitation  
Precipitation 0.00 in - - ()
Sea Level Pressure  
Sea Level Pressure 30.02 in    
Wind  
Wind Speed 1 mph (WNW)    
Max Wind Speed 12 mph    
Max Gust Speed 16 mph    
Visibility 10 miles    
Events      
Averages and records for this station are not official NWS values.
T = Trace of Precipitation, MM = Missing Value Source: NWS Daily Summary

Daily Weather History Graph

Daily Weather History Graph

Search for Another Location

Airport or City:

Trip Planner

Search our weather history database for the weather conditions in past years. The results will help you decide how hot, cold, wet, or windy it might be!

Date:

Astronomy

Jan. 05, 2012 Rise Set
Actual Time 7:27 AM EST 5:02 PM EST
Civil Twilight 6:57 AM EST 5:32 PM EST
Nautical Twilight 6:24 AM EST 6:05 PM EST
Astronomical Twilight 5:52 AM EST 6:37 PM EST
Moon 2:05 PM EST 4:10 AM EST
Length of Visible Light 10h 34m
Length of Day
9h 35m
Waxing Gibbous, 87% of the Moon is Illuminated
Jan 5
Waxing Gibbous
Jan 9
Full
Jan 16
Last Quarter
Jan 23
New
Jan 30
First Quarter

Hourly Weather History & Observations

Time (EST) Temp. Windchill Dew Point Humidity Pressure Visibility Wind Dir Wind Speed Gust Speed Precip Events Conditions
12:15 AM 32.0 °F - 28.4 °F 87% 30.02 in 10.0 mi Calm Calm - N/A   Scattered Clouds
12:35 AM 30.2 °F - 26.6 °F 86% 30.01 in 10.0 mi Calm Calm - N/A   Mostly Cloudy
12:55 AM 30.2 °F - 26.6 °F 86% 30.01 in 10.0 mi Calm Calm - N/A   Scattered Clouds
1:15 AM 30.2 °F - 26.6 °F 86% 30.01 in 10.0 mi Calm Calm - N/A   Clear
1:35 AM 30.2 °F - 28.4 °F 93% 30.00 in 10.0 mi Calm Calm - N/A   Clear
1:55 AM 30.2 °F - 26.6 °F 86% 30.00 in 10.0 mi Calm Calm - N/A   Scattered Clouds
2:15 AM 30.2 °F - 28.4 °F 93% 29.99 in 10.0 mi Calm Calm - N/A   Scattered Clouds
2:35 AM 30.2 °F 26.7 °F 28.4 °F 93% 30.00 in 10.0 mi NNW 3.5 mph - N/A   Overcast
2:55 AM 30.2 °F - 28.4 °F 93% 30.00 in 10.0 mi Calm Calm - N/A   Overcast
3:15 AM 30.2 °F - 26.6 °F 86% 29.99 in 10.0 mi Calm Calm - N/A   Overcast
3:35 AM 30.2 °F - 26.6 °F 86% 29.99 in 10.0 mi Calm Calm - N/A   Mostly Cloudy
3:55 AM 30.2 °F - 26.6 °F 86% 29.99 in 10.0 mi Calm Calm - N/A   Scattered Clouds
4:15 AM 30.2 °F - 26.6 °F 86% 30.00 in 10.0 mi Calm Calm - N/A   Scattered Clouds
4:35 AM 30.2 °F - 26.6 °F 86% 30.00 in 10.0 mi Calm Calm - N/A   Mostly Cloudy
4:55 AM 30.2 °F - 28.4 °F 93% 30.00 in 10.0 mi Calm Calm - N/A   Mostly Cloudy
5:15 AM 30.2 °F - 28.4 °F 93% 30.01 in 10.0 mi Calm Calm - N/A   Mostly Cloudy
5:35 AM 30.2 °F - 28.4 °F 93% 30.00 in 10.0 mi Calm Calm - N/A   Overcast
5:55 AM 30.2 °F - 28.4 °F 93% 30.01 in 10.0 mi Calm Calm - N/A   Overcast
6:15 AM 30.2 °F 26.7 °F 28.4 °F 93% 30.02 in 10.0 mi NW 3.5 mph - N/A   Overcast
6:35 AM 30.2 °F - 28.4 °F 93% 30.02 in 10.0 mi Calm Calm - N/A   Overcast
6:55 AM 30.2 °F - 28.4 °F 93% 30.02 in 10.0 mi Calm Calm - N/A   Mostly Cloudy
7:15 AM 30.2 °F - 28.4 °F 93% 30.04 in 10.0 mi Calm Calm - N/A   Scattered Clouds
7:55 AM 28.4 °F - 26.6 °F 93% 30.04 in 10.0 mi Calm Calm - N/A   Clear
8:15 AM 28.4 °F - 28.4 °F 100% 30.05 in 10.0 mi Calm Calm - N/A   Clear
8:35 AM 30.2 °F - 30.2 °F 100% 30.05 in 10.0 mi Calm Calm - N/A   Clear
9:15 AM 35.6 °F - 30.2 °F 81% 30.07 in 10.0 mi Calm Calm - N/A   Clear
9:35 AM 35.6 °F - 28.4 °F 75% 30.07 in 10.0 mi Calm Calm - N/A   Clear
9:55 AM 37.4 °F 34.9 °F 30.2 °F 75% 30.07 in 10.0 mi West 3.5 mph - N/A   Clear
10:15 AM 41.0 °F - 26.6 °F 57% 30.07 in 10.0 mi Calm Calm - N/A   Clear
10:35 AM 42.8 °F 40.1 °F 28.4 °F 57% 30.07 in 10.0 mi NW 4.6 mph - N/A   Clear
11:15 AM 44.6 °F 41.4 °F 30.2 °F 57% 30.05 in 10.0 mi West 5.8 mph - N/A   Clear
11:35 AM 46.4 °F 42.4 °F 32.0 °F 57% 30.05 in 10.0 mi West 8.1 mph - N/A   Clear
11:55 AM 48.2 °F - 32.0 °F 54% 30.03 in 10.0 mi NW 10.4 mph - N/A   Clear
12:15 PM 46.4 °F 42.9 °F 32.0 °F 57% 30.02 in 10.0 mi West 6.9 mph - N/A   Clear
12:55 PM 48.2 °F - 32.0 °F 54% 30.02 in 10.0 mi NW 10.4 mph 16.1 mph N/A   Clear
1:15 PM 48.2 °F - 32.0 °F 54% 30.02 in 10.0 mi WNW 11.5 mph - N/A   Clear
1:55 PM 48.2 °F - 32.0 °F 54% 30.01 in 10.0 mi WNW 4.6 mph - N/A   Clear
2:15 PM 48.2 °F - 30.2 °F 50% 30.01 in 10.0 mi West 8.1 mph - N/A   Clear
2:35 PM 48.2 °F - 30.2 °F 50% 30.01 in 10.0 mi WNW 3.5 mph - N/A   Clear
2:55 PM 50.0 °F - 32.0 °F 50% 30.01 in 10.0 mi West 4.6 mph - N/A   Clear
3:15 PM 51.8 °F - 32.0 °F 47% 30.01 in 10.0 mi WNW 6.9 mph - N/A   Clear
3:35 PM 51.8 °F - 30.2 °F 44% 30.01 in 10.0 mi SW 5.8 mph - N/A   Clear
3:55 PM 50.0 °F - 30.2 °F 47% 30.01 in 10.0 mi WNW 9.2 mph - N/A   Clear
4:15 PM 50.0 °F - 28.4 °F 43% 30.02 in 10.0 mi West 4.6 mph - N/A   Clear
4:35 PM 48.2 °F - 28.4 °F 46% 30.02 in 10.0 mi West 3.5 mph - N/A   Clear
4:55 PM 48.2 °F - 28.4 °F 46% 30.02 in 10.0 mi Calm Calm - N/A   Clear
5:15 PM 42.8 °F - 26.6 °F 53% 30.03 in 10.0 mi Calm Calm - N/A   Clear
5:35 PM 41.0 °F - 28.4 °F 61% 30.03 in 10.0 mi Calm Calm - N/A   Clear
5:55 PM 35.6 °F - 26.6 °F 70% 30.04 in 10.0 mi Calm Calm - N/A   Clear
6:15 PM 35.6 °F - 26.6 °F 70% 30.04 in 10.0 mi Calm Calm - N/A   Clear
6:35 PM 35.6 °F - 28.4 °F 75% 30.04 in 10.0 mi Calm Calm - N/A   Clear
6:55 PM 33.8 °F - 28.4 °F 81% 30.05 in 10.0 mi Calm Calm - N/A   Clear
7:15 PM 33.8 °F - 26.6 °F 75% 30.04 in 10.0 mi Calm Calm - N/A   Clear
7:35 PM 33.8 °F - 26.6 °F 75% 30.05 in 10.0 mi Calm Calm - N/A   Clear
7:55 PM 32.0 °F - 24.8 °F 75% 30.04 in 10.0 mi Calm Calm - N/A   Clear
8:15 PM 32.0 °F - 24.8 °F 75% 30.04 in 10.0 mi Calm Calm - N/A   Clear
8:35 PM 30.2 °F - 24.8 °F 80% 30.04 in 10.0 mi Calm Calm - N/A   Clear
8:55 PM 30.2 °F - 24.8 °F 80% 30.04 in 10.0 mi Calm Calm - N/A   Clear
9:15 PM 30.2 °F - 23.0 °F 75% 30.03 in 10.0 mi Calm Calm - N/A   Clear
9:35 PM 30.2 °F - 23.0 °F 75% 30.03 in 10.0 mi Calm Calm - N/A   Clear
9:55 PM 32.0 °F - 26.6 °F 80% 30.03 in 10.0 mi Calm Calm - N/A   Clear
10:15 PM 32.0 °F 28.7 °F 26.6 °F 80% 30.03 in 10.0 mi SSW 3.5 mph - N/A   Clear
10:35 PM 35.6 °F - 26.6 °F 70% 30.02 in 10.0 mi Calm Calm - N/A   Clear
10:55 PM 35.6 °F - 26.6 °F 70% 30.02 in 10.0 mi Calm Calm - N/A   Clear
11:15 PM 37.4 °F 34.9 °F 28.4 °F 70% 30.01 in 10.0 mi SSW 3.5 mph - N/A   Clear
11:35 PM 37.4 °F 34.9 °F 26.6 °F 65% 30.01 in 10.0 mi SSW 3.5 mph - N/A   Clear
11:55 PM 35.6 °F 32.8 °F 28.4 °F 75% 30.01 in 10.0 mi South 3.5 mph - N/A   Clear